Daleville, AL

1:36 AM CST on February 22, 2017 (GMT -0600)
Cairns Army Air Field

Weather History for KOZR - November, 2014

Change the Weather History Date:

Saturday, November 22, 2014

  Actual Average Record
Temperature  
Mean Temperature 53 °F -  
Max Temperature 65 °F 65 °F 80 °F (2011)
Min Temperature 41 °F 43 °F 23 °F (2000)
Degree Days  
Heating Degree Days 12    
Growing Degree Days 3 (Base 50)    
Moisture  
Dew Point 54 °F    
Average Humidity 89    
Maximum Humidity 100    
Minimum Humidity 59    
Precipitation  
Precipitation 0.13 in - - ()
Sea Level Pressure  
Sea Level Pressure 30.18 in    
Wind  
Wind Speed 8 mph (ENE)    
Max Wind Speed 13 mph    
Max Gust Speed -    
Visibility 9 miles    
Events Rain    
Averages and records for this station are not official NWS values.
T = Trace of Precipitation, MM = Missing Value Source: NWS Daily Summary

Daily Weather History Graph

Daily Weather History Graph

Search for Another Location

Airport or City:

Trip Planner

Search our weather history database for the weather conditions in past years. The results will help you decide how hot, cold, wet, or windy it might be!

Date:

Astronomy

Nov. 22, 2014 Rise Set
Actual Time 6:16 AM CST 4:41 PM CST
Civil Twilight 5:50 AM CST 5:07 PM CST
Nautical Twilight 5:20 AM CST 5:37 PM CST
Astronomical Twilight 4:51 AM CST 6:06 PM CST
Moon 6:14 AM CST 5:09 PM CST
Length of Visible Light 11h 17m
Length of Day
10h 25m
New Moon, 0% of the Moon is Illuminated
Nov 22
New Moon
Nov 29
First Quarter
Dec 6
Full
Dec 14
Last Quarter
Dec 21
New

Hourly Weather History & Observations

Time (CST) Temp. Windchill Dew Point Humidity Pressure Visibility Wind Dir Wind Speed Gust Speed Precip Events Conditions
12:58 AM 43.3 °F 39.2 °F 36.9 °F 78% 30.34 in 10.0 mi NE 6.9 mph - N/A   Clear
1:58 AM 42.1 °F 38.4 °F 36.5 °F 81% 30.34 in 10.0 mi ENE 5.8 mph - N/A   Clear
2:58 AM 41.9 °F 38.2 °F 36.3 °F 81% 30.33 in 10.0 mi NE 5.8 mph - N/A   Clear
3:58 AM 43.0 °F 38.2 °F 37.8 °F 82% 30.33 in 10.0 mi NE 8.1 mph - N/A   Partly Cloudy
4:58 AM 43.7 °F 39.1 °F 38.5 °F 82% 30.34 in 10.0 mi NE 8.1 mph - N/A   Scattered Clouds
5:58 AM 45.1 °F 40.8 °F 39.6 °F 81% 30.35 in 10.0 mi NE 8.1 mph - N/A   Mostly Cloudy
6:58 AM 46.0 °F 41.0 °F 40.5 °F 81% 30.34 in 10.0 mi NE 10.4 mph - N/A   Mostly Cloudy
7:58 AM 48.6 °F - 42.4 °F 79% 30.35 in 10.0 mi ENE 9.2 mph - N/A   Clear
8:58 AM 55.9 °F - 45.9 °F 69% 30.35 in 10.0 mi ENE 11.5 mph - N/A   Scattered Clouds
9:58 AM 61.2 °F - 48.0 °F 62% 30.34 in 10.0 mi East 12.7 mph - N/A   Mostly Cloudy
10:58 AM 64.0 °F - 49.5 °F 59% 30.31 in 10.0 mi ENE 11.5 mph - N/A   Overcast
11:58 AM 65.3 °F - 50.9 °F 60% 30.27 in 10.0 mi ENE 10.4 mph - N/A   Overcast
12:58 PM 65.3 °F - 51.4 °F 61% 30.23 in 10.0 mi East 8.1 mph - N/A   Overcast
1:08 PM 64.4 °F - 51.8 °F 64% 30.22 in 10.0 mi East 9.2 mph - N/A   Overcast
1:34 PM 64.4 °F - 51.8 °F 64% 30.22 in 8.0 mi East 8.1 mph - N/A Rain Light Rain
1:35 PM 64.4 °F - 51.8 °F 64% 30.22 in 7.0 mi East 8.1 mph - N/A Rain Light Rain
1:45 PM 60.8 °F - 55.4 °F 82% 30.21 in 2.5 mi East 6.9 mph - N/A Rain Light Rain
1:50 PM 60.8 °F - 55.4 °F 82% 30.21 in 3.0 mi East 9.2 mph - N/A Rain Light Rain
1:55 PM 60.8 °F - 57.2 °F 88% 30.21 in 4.0 mi East 5.8 mph - N/A Rain Light Rain
1:58 PM 59.9 °F - 56.5 °F 88% 30.22 in 5.0 mi East 6.9 mph - 0.02 in Rain Light Rain
2:08 PM 59.0 °F - 57.2 °F 94% 30.21 in 8.0 mi East 6.9 mph - N/A   Light Drizzle
2:58 PM 58.8 °F - 57.4 °F 95% 30.20 in 8.0 mi East 8.1 mph - 0.01 in   Light Drizzle
3:07 PM 59.0 °F - 57.2 °F 94% 30.19 in 7.0 mi East 5.8 mph - N/A   Drizzle
3:32 PM 59.0 °F - 57.2 °F 94% 30.18 in 6.0 mi ENE 6.9 mph - N/A   Drizzle
3:42 PM 59.0 °F - 57.2 °F 94% 30.18 in 7.0 mi ENE 5.8 mph - N/A   Light Drizzle
3:58 PM 58.5 °F - 57.2 °F 96% 30.18 in 7.0 mi ENE 6.9 mph - 0.01 in Rain Light Rain
4:08 PM 59.0 °F - 57.2 °F 94% 30.17 in 7.0 mi ENE 6.9 mph - N/A   Drizzle
4:58 PM 58.5 °F - 57.2 °F 96% 30.16 in 10.0 mi ENE 8.1 mph - 0.01 in   Drizzle
5:13 PM 59.0 °F - 57.2 °F 94% 30.16 in 10.0 mi ENE 8.1 mph - N/A   Drizzle
5:23 PM 59.0 °F - 57.2 °F 94% 30.16 in 10.0 mi ENE 8.1 mph - N/A   Drizzle
5:33 PM 59.0 °F - 57.2 °F 94% 30.15 in 10.0 mi ENE 9.2 mph - N/A   Drizzle
5:58 PM 58.8 °F - 57.4 °F 95% 30.16 in 10.0 mi ENE 10.4 mph - 0.00 in   Light Drizzle
6:58 PM 59.4 °F - 57.6 °F 94% 30.15 in 10.0 mi ENE 9.2 mph - 0.00 in   Light Drizzle
7:18 PM 59.0 °F - 57.2 °F 94% 30.15 in 9.0 mi ENE 10.4 mph - N/A   Light Drizzle
7:33 PM 59.0 °F - 57.2 °F 94% 30.14 in 8.0 mi ENE 10.4 mph - N/A   Drizzle
7:53 PM 59.0 °F - 57.2 °F 94% 30.14 in 9.0 mi ENE 9.2 mph - N/A   Light Drizzle
7:58 PM 59.4 °F - 58.1 °F 96% 30.15 in 10.0 mi ENE 10.4 mph - 0.01 in   Light Drizzle
8:03 PM 59.0 °F - 59.0 °F 100% 30.14 in 7.0 mi ENE 10.4 mph - N/A Rain Light Rain
8:23 PM 59.0 °F - 57.2 °F 94% 30.13 in 10.0 mi ENE 10.4 mph - N/A Rain Light Rain
8:46 PM 59.0 °F - 59.0 °F 100% 30.11 in 10.0 mi ENE 10.4 mph - N/A   Overcast
8:58 PM 59.4 °F - 58.3 °F 96% 30.12 in 10.0 mi ENE 10.4 mph - 0.02 in   Overcast
9:06 PM 59.0 °F - 59.0 °F 100% 30.10 in 10.0 mi ENE 10.4 mph - N/A   Light Drizzle
9:11 PM 59.0 °F - 59.0 °F 100% 30.10 in 10.0 mi East 10.4 mph - N/A   Light Drizzle
9:16 PM 59.0 °F - 59.0 °F 100% 30.10 in 10.0 mi ENE 9.2 mph - N/A   Overcast
9:27 PM 59.0 °F - 59.0 °F 100% 30.10 in 10.0 mi East 10.4 mph - N/A   Light Drizzle
9:47 PM 59.0 °F - 59.0 °F 100% 30.10 in 7.0 mi ENE 6.9 mph - N/A Rain Light Rain
9:57 PM 59.0 °F - 59.0 °F 100% 30.10 in 5.0 mi East 8.1 mph - N/A Rain Light Rain
9:58 PM 59.0 °F - 59.0 °F 100% 30.11 in 5.0 mi East 6.9 mph - 0.03 in Rain Light Rain
10:13 PM 59.0 °F - 59.0 °F 100% 30.10 in 9.0 mi East 8.1 mph - N/A   Light Drizzle
10:20 PM 59.0 °F - 59.0 °F 100% 30.10 in 10.0 mi East 9.2 mph - N/A   Overcast
10:45 PM 59.0 °F - 59.0 °F 100% 30.07 in 10.0 mi ENE 9.2 mph - N/A   Overcast
10:58 PM 59.5 °F - 58.5 °F 96% 30.06 in 10.0 mi East 10.4 mph - 0.01 in   Overcast
11:13 PM 59.0 °F - 59.0 °F 100% 30.05 in 10.0 mi ENE 8.1 mph - N/A   Overcast
11:38 PM 59.0 °F - 59.0 °F 100% 30.06 in 10.0 mi East 8.1 mph - N/A   Overcast
11:45 PM 59.0 °F - 59.0 °F 100% 30.06 in 10.0 mi East 6.9 mph - N/A   Light Drizzle
11:58 PM 59.7 °F - 58.6 °F 96% 30.05 in 9.0 mi ENE 10.4 mph - 0.01 in Rain Light Rain